Regional Weather Roundup
Issued by NWS State College, PA

Home | Current Version | Previous Version | Graphics & Text | Print | Product List | Glossary On
Versions: 1 2 3 4 5 6 7 8 9 10 11 12 13 14 15 16 17 18 19 20 21 22 23 24 25 26 27 28 29 30 31 32 33 34 35 36 37 38 39 40 41 42 43 44 45 46 47 48 49 50
000
ASUS41 KCTP 210103
RWRCTP

REGIONAL WEATHER ROUNDUP
NATIONAL WEATHER SERVICE STATE COLLEGE PA
800 PM EST SAT JAN 20 2018

Note: "fair" indicates few or no clouds below 12,000 feet with no
significant weather and/or obstructions to visibility.

* = STATION THAT DOES NOT REPORT PRECIPITATION /E.G. RAIN...SNOW...ETC/
    THUNDER OR FOG.

PAZ002>004-007>009-013>016-020>023-029>032-210200-
WESTERN PENNSYLVANIA

CITY           SKY/WX    TMP DP  RH WIND       PRES   REMARKS
ERIE           FAIR      30  26  85 CALM      30.04R
MEADVILLE      FAIR      36  26  67 S8        30.04R
FRANKLIN*      FAIR      36  26  67 SW9       30.04
NEW CASTLE     FAIR      37  29  72 SW3       30.08R
BEAVER COUNTY  NOT AVBL
BUTLER*        FAIR      38  27  64 SW6       30.07
PITTSBURGH INT FAIR      41  28  60 S3        30.07R
PITTSBURGH     FAIR      41  27  57 SW9       30.07R
INDIANA*       PTCLDY    37  30  75 W6        30.10S
LATROBE        CLEAR     37  30  75 SW3       30.09S
WASHINGTON CO* FAIR      41  28  60 S3        30.11R
$$

PAZ004>006-010>012-017>019-024>028-033>037-041-042-045-046-049>053-210200-
CENTRAL PENNSYLVANIA

CITY           SKY/WX    TMP DP  RH WIND       PRES   REMARKS
BRADFORD       FAIR      36  26  67 VRB3      30.00R
DUBOIS           N/A     35  25  66 MISG      30.03R
CLEARFIELD     FAIR      41  27  57 W12G20    30.04R
JOHNSTOWN      FAIR      40  29  64 W14       30.03S
ALTOONA        FAIR      43  30  60 W8        30.04S
STATE COLLEGE  CLEAR     41  28  60 SW8       30.04S
WILLIAMSPORT   FAIR      35  28  75 CALM      30.02R
SELINSGROVE    FAIR      32  26  78 CALM      30.05R
FT INDIANTOWN  FAIR      44  29  55 SW6       30.04R
CAPITAL CITY   FAIR      36  30  79 CALM      30.05R
HARRISBURG     MOCLDY    34  31  88 CALM      30.04R
YORK           FAIR      32  29  88 CALM      30.04R
$$

PAZ038>040-043-044-047-048-054-055-060>062-067>071-210200-
EASTERN PENNSYLVANIA

CITY           SKY/WX    TMP DP  RH WIND       PRES   REMARKS
SCRANTON       FAIR      41  27  57 SW6       30.00R
MOUNT POCONO   FAIR      35  26  69 W12       29.97R
ALLENTOWN      FAIR      36  27  69 SW7       30.03R
QUAKERTOWN*    FAIR      45  28  53 MISG      30.03R
READING        FAIR      38  31  76 NE3       30.04R
LANCASTER      FAIR      39  33  79 W6        30.04R
COATESVILLE    FAIR      37  30  75 CALM      30.05R
POTTSTOWN      FAIR      40  28  62 W3        30.05R
BLUE BELL      FAIR      37  30  75 CALM      30.05R
DOYLESTOWN     FAIR      43  28  55 W6        30.02R
WILLOW GROVE   NOT AVBL
NORTH PHILA    FAIR      46  30  53 W5        30.05R
PHILADELPHIA   MOCLDY    43  28  55 NW6       30.05R
$$



USA.gov is the U.S. government's official web portal to all federal, state and local government web resources and services.